Retour au catalogue

ONEWEB-0448

ActifCommunicationsPO
NORAD 51641·PAYLOAD·🇬🇧 United Kingdom

Lancé Feb 10, 2022 depuis Guiana Space Centre

Loading…

Prochains Passages (prochaines 24 heures)

TLE

FraisSource: CelesTrak SupGP

Époque: Sep 14, 2026, 23:32 UTC

1 51641C 22012V   26257.98109214 -.00002645  00000+0 -75869-2 0  2572
2 51641  87.8893  18.3989 0001743 103.6641 296.2887 13.10370585    12

Suivez ONEWEB-0448 en temps réel avec AllMySat

Download on the App Store